Погода в Безье

Франция     43˚20′52″N   3˚12′59″E
темп.,
°C
ветер,
м/с
пор.,
м/с
влажн.,
%
обл.,
%
осадки,
мм/ч
давл.,
гПа
погр.,
м
6 декабря, вс
вс601:00+6˚з577933 0.0 1001274
04:00+6˚з478459 0.0 1001274
07:00+7˚зсз598274 0.0 1001414
10:00+9˚з71174100 0.0 1002659
13:00+11˚зсз71259100 0.0 10011513
16:00+10˚зсз8136094 0.1 10011545
19:00+8˚зсз7136382 0.1 10021138
22:00+7˚зсз713680 0.0 1004952
7 декабря, пн
пн701:00+7˚зсз713708 0.0 1004839
04:00+6˚з58740 0.0 1004434
07:00+6˚сз347827 0.0 1004176
10:00+7˚св1269100 0.0 1004179
13:00+9˚ссз1158100 0.0 1002475
16:00+9˚в125793 0.0 1001528
19:00+8˚всв126295 0.0 1001181
22:00+7˚сз2371100 0.1 1002188
8 декабря, вт
вт801:00+7˚всв1179100 0.6 1001204
04:00+6˚св3477100 0.1 1000208
07:00+6˚ссв3579100 0.3 999296
10:00+6˚ссв348065 0.1 1000209
13:00+7˚з348583 2.9 1002411
16:00+8˚зсз71274100 0.1 10041178
19:00+7˚зсз101573100 0.1 10071098
22:00+6˚зсз9156688 0.0 10081118
9 декабря, ср
ср901:00+6˚зсз10166454 0.0 1010985
04:00+5˚зсз1016640 0.0 10101095
07:00+5˚зсз917648 0.0 10121240
10:00+7˚зсз1017610 0.0 10121347
13:00+9˚сз1116550 0.0 10121527
16:00+8˚сз1015590 0.0 10121286
19:00+6˚сз815630 0.0 1013904
22:00+6˚сз6146348 0.0 1014921
10 декабря, чт
чт1001:00+6˚зсз596937 0.0 1012407
04:00+6˚зсз467365 0.0 1010206
07:00+5˚зсз237882 0.0 1010112
10:00+6˚сз237174 0.0 1011161
13:00+11˚зсз255740 0.0 1010545
16:00+12˚сз36580 0.0 1011492
19:00+9˚сз34700 0.0 1013139
22:00+8˚ссз127534 0.0 101465